Falls City, NE

6:36 PM CDT on May 27, 2018 (GMT -0500)
Brenner

Weather History for KFNB - February, 2014

Change the Weather History Date:

Tuesday, February 18, 2014

  Actual Average Record
Temperature  
Mean Temperature 50 °F -  
Max Temperature 62 °F 44 °F 77 °F (2016)
Min Temperature 37 °F 22 °F -10 °F (1978)
Degree Days  
Heating Degree Days 16    
Moisture  
Dew Point 30 °F    
Average Humidity 51    
Maximum Humidity 65    
Minimum Humidity 39    
Precipitation  
Precipitation 0.00 in - - ()
Sea Level Pressure  
Sea Level Pressure 29.78 in    
Wind  
Wind Speed 13 mph (WSW)    
Max Wind Speed 17 mph    
Max Gust Speed 24 mph    
Visibility 10 miles    
Events      
Averages and records for this station are not official NWS values.
T = Trace of Precipitation, MM = Missing Value Source: NWS Daily Summary

Daily Weather History Graph

Daily Weather History Graph

Search for Another Location

Airport or City:

Astronomy

Feb. 18, 2014 Rise Set
Actual Time 7:11 AM CST 6:01 PM CST
Civil Twilight 6:43 AM CST 6:29 PM CST
Nautical Twilight 6:12 AM CST 7:01 PM CST
Astronomical Twilight 5:40 AM CST 7:32 PM CST
Moon 9:56 PM CST (2/18) 8:44 AM CST (2/18)
Length of Visible Light 11h 45m
Length of Day
10h 50m
Waning Gibbous, 87% of the Moon is Illuminated
Feb 18
Waning Gibbous
Feb 22
Last Quarter
Mar 1
New
Mar 8
First Quarter
Mar 16
Full

Hourly Weather History & Observations

Time (CST) Temp. Windchill Dew Point Humidity Pressure Visibility Wind Dir Wind Speed Gust Speed Precip Events Conditions
12:53 AM 37.9 °F 30.9 °F 26.1 °F 62% 29.90 in 10.0 mi SSW 10.4 mph - N/A   Clear
1:53 AM 37.9 °F 29.2 °F 27.0 °F 65% 29.87 in 10.0 mi SSW 15.0 mph - N/A   Clear
2:53 AM 39.0 °F 29.9 °F 26.1 °F 60% 29.83 in 10.0 mi SSW 17.3 mph - N/A   Clear
3:53 AM 41.0 °F 35.8 °F 26.1 °F 55% 29.79 in 10.0 mi South 8.1 mph - N/A   Clear
4:53 AM 42.1 °F 34.9 °F 26.1 °F 53% 29.76 in 10.0 mi South 13.8 mph 19.6 mph N/A   Clear
5:53 AM 39.9 °F 32.9 °F 26.1 °F 58% 29.76 in 10.0 mi SW 11.5 mph - N/A   Clear
6:53 AM 39.0 °F 34.8 °F 26.1 °F 60% 29.75 in 10.0 mi SSW 5.8 mph - N/A   Clear
7:53 AM 41.0 °F 34.7 °F 27.0 °F 57% 29.75 in 10.0 mi SSW 10.4 mph - N/A   Clear
8:53 AM 46.0 °F 39.9 °F 28.0 °F 50% 29.74 in 10.0 mi SSW 13.8 mph 20.7 mph N/A   Clear
9:53 AM 50.0 °F - 28.9 °F 44% 29.70 in 10.0 mi SW 13.8 mph 20.7 mph N/A   Clear
10:53 AM 52.0 °F - 30.0 °F 43% 29.72 in 10.0 mi SW 13.8 mph - N/A   Clear
11:53 AM 55.0 °F - 32.0 °F 42% 29.70 in 10.0 mi SW 16.1 mph 24.2 mph N/A   Clear
12:53 PM 57.9 °F - 34.0 °F 41% 29.70 in 10.0 mi WSW 17.3 mph - N/A   Clear
1:53 PM 59.0 °F - 36.0 °F 42% 29.68 in 10.0 mi SW 16.1 mph - N/A   Clear
2:53 PM 61.0 °F - 37.0 °F 41% 29.66 in 10.0 mi SW 17.3 mph - N/A   Clear
3:53 PM 62.1 °F - 37.0 °F 39% 29.67 in 10.0 mi SW 17.3 mph - N/A   Clear
4:53 PM 57.9 °F - 37.9 °F 47% 29.69 in 10.0 mi WSW 9.2 mph - N/A   Clear
5:53 PM 55.0 °F - 30.9 °F 40% 29.73 in 10.0 mi WNW 16.1 mph - N/A   Clear
6:53 PM 52.0 °F - 30.0 °F 43% 29.81 in 10.0 mi NNW 12.7 mph - N/A   Clear
7:53 PM 48.0 °F - 32.0 °F 54% 29.87 in 10.0 mi NNW 11.5 mph - N/A   Clear
8:53 PM 46.0 °F 41.4 °F 30.0 °F 54% 29.91 in 10.0 mi NW 9.2 mph - N/A   Clear
9:53 PM 41.0 °F 35.8 °F 28.9 °F 62% 29.93 in 10.0 mi NW 8.1 mph - N/A   Clear
10:53 PM 41.0 °F 34.7 °F 28.0 °F 60% 29.94 in 10.0 mi NW 10.4 mph - N/A   Clear
11:53 PM 39.9 °F 33.9 °F 27.0 °F 60% 29.96 in 10.0 mi NW 9.2 mph - N/A   Clear